| time (UTC) | temp F | wind direction | speed knots | gust knots | rain 1hr in | rain 24hr in | rain mn in | humidity % | barometer mb |
| 20260507104524 | 36 | 280 | 0.0 | 0.0 | 0.00 | 0.00 | 0.00 | 68 | 1016.6 |
| 20260507103023 | 36 | 284 | 0.0 | 0.9 | 0.00 | 0.00 | 0.00 | 70 | 1016.7 |
| 20260507101533 | 36 | 270 | 0.0 | 0.9 | 0.00 | 0.00 | 0.00 | 70 | 1016.7 |
| 20260507100023 | 36 | 277 | 0.0 | 0.0 | 0.00 | 0.00 | 0.00 | 70 | 1016.9 |
| 20260507094519 | 37 | 279 | 0.0 | 0.0 | 0.00 | 0.00 | 0.00 | 69 | 1017.0 |
| 20260507093019 | 36 | 283 | 0.0 | 0.0 | 0.00 | 0.00 | 0.00 | 71 | 1017.1 |
| 20260507091519 | 37 | 279 | 0.0 | 0.0 | 0.00 | 0.00 | 0.00 | 68 | 1017.2 |
| 20260507090018 | 37 | 279 | 0.0 | 0.0 | 0.00 | 0.00 | 0.00 | 68 | 1017.2 |
| 20260507084516 | 37 | 283 | 0.0 | 0.0 | 0.00 | 0.00 | 0.00 | 69 | 1017.1 |
| 20260507083014 | 37 | 277 | 0.0 | 0.0 | 0.00 | 0.00 | 0.00 | 69 | 1017.2 |
| 20260507081517 | 38 | 279 | 0.0 | 0.0 | 0.00 | 0.00 | 0.00 | 68 | 1017.3 |
| 20260507080013 | 38 | 275 | 0.0 | 0.9 | 0.00 | 0.00 | 0.00 | 68 | 1017.4 |
| 20260507074510 | 38 | 283 | 0.0 | 0.9 | 0.00 | 0.00 | 0.00 | 67 | 1017.5 |
| 20260507073009 | 39 | 277 | 0.0 | 0.9 | 0.00 | 0.00 | 0.00 | 64 | 1017.5 |
| 20260507071511 | 40 | 276 | 0.0 | 0.0 | 0.00 | 0.00 | 0.00 | 63 | 1017.5 |
| 20260507070012 | 39 | 279 | 0.0 | 0.9 | 0.00 | 0.00 | 0.00 | 66 | 1017.6 |
| 20260507064510 | 40 | 282 | 0.0 | 0.9 | 0.00 | 0.00 | 0.00 | 66 | 1017.7 |
| 20260507063010 | 39 | 281 | 0.0 | 0.9 | 0.00 | 0.00 | 0.00 | 68 | 1017.5 |
| 20260507061509 | 40 | 277 | 0.0 | 0.9 | 0.00 | 0.00 | 0.00 | 67 | 1017.5 |
| 20260507060017 | 40 | 277 | 0.0 | 0.9 | 0.00 | 0.00 | 0.00 | 67 | 1017.4 |
| 20260507054509 | 40 | 279 | 0.9 | 1.7 | 0.00 | 0.00 | 0.00 | 68 | 1017.4 |
| 20260507053009 | 40 | 280 | 0.0 | 0.9 | 0.00 | 0.00 | 0.00 | 66 | 1017.4 |
| 20260507051509 | 41 | 279 | 0.0 | 0.0 | 0.00 | 0.00 | 0.00 | 66 | 1017.3 |
| 20260507050009 | 41 | 280 | 0.0 | 1.7 | 0.00 | 0.00 | 0.00 | 66 | 1017.1 |
| 20260507044506 | 42 | 279 | 0.9 | 1.7 | 0.00 | 0.00 | 0.00 | 64 | 1017.0 |
| 20260507043006 | 43 | 284 | 0.0 | 0.9 | 0.00 | 0.00 | 0.00 | 63 | 1016.8 |
| 20260507041518 | 44 | 282 | 0.0 | 0.9 | 0.00 | 0.00 | 0.00 | 60 | 1016.6 |
| 20260507040006 | 45 | 275 | 0.0 | 0.0 | 0.00 | 0.00 | 0.00 | 57 | 1016.4 |
| 20260507034505 | 46 | 275 | 0.0 | 0.9 | 0.00 | 0.00 | 0.00 | 59 | 1016.3 |
| 20260507033004 | 47 | 282 | 0.0 | 0.9 | 0.00 | 0.00 | 0.00 | 54 | 1016.1 |
| 20260507031503 | 49 | 282 | 0.0 | 1.7 | 0.00 | 0.00 | 0.00 | 53 | 1015.9 |
| 20260507030004 | 51 | 275 | 0.0 | 0.9 | 0.00 | 0.00 | 0.00 | 48 | 1015.6 |
| 20260507024503 | 52 | 276 | 0.0 | 0.9 | 0.00 | 0.00 | 0.00 | 46 | 1015.5 |
| 20260507023003 | 54 | 265 | 0.0 | 0.0 | 0.00 | 0.00 | 0.00 | 42 | 1015.4 |
| 20260507021502 | 57 | 267 | 0.0 | 1.7 | 0.00 | 0.00 | 0.00 | 40 | 1015.4 |
| 20260507020002 | 60 | 44 | 0.0 | 4.3 | 0.00 | 0.00 | 0.00 | 32 | 1015.3 |
| 20260507014504 | 60 | 65 | 0.0 | 3.5 | 0.00 | 0.00 | 0.00 | 32 | 1015.4 |
| 20260507013002 | 61 | 59 | 0.9 | 6.1 | 0.00 | 0.00 | 0.00 | 31 | 1015.4 |
| 20260507011603 | 62 | 225 | 0.9 | 7.8 | 0.00 | 0.00 | 0.00 | 31 | 1015.4 |
| 20260507010059 | 63 | 46 | 1.7 | 4.3 | 0.00 | 0.00 | 0.00 | 30 | 1015.6 |
| 20260507004558 | 62 | 155 | 0.9 | 4.3 | 0.00 | 0.00 | 0.00 | 31 | 1015.7 |
| 20260507003057 | 61 | 126 | 0.9 | 3.5 | 0.00 | 0.00 | 0.00 | 33 | 1015.7 |
| 20260507001558 | 61 | 69 | 0.9 | 6.1 | 0.00 | 0.00 | 0.00 | 34 | 1015.7 |
| 20260507000056 | 61 | 87 | 0.9 | 7.8 | 0.00 | 0.00 | 0.00 | 33 | 1015.7 |
| 20260506234602 | 62 | 300 | 3.5 | 13.0 | 0.00 | 0.00 | 0.00 | 32 | 1015.7 |
| 20260506233058 | 62 | 114 | 0.9 | 3.5 | 0.00 | 0.00 | 0.00 | 32 | 1015.8 |
| 20260506231559 | 63 | 22 | 0.0 | 7.8 | 0.00 | 0.00 | 0.00 | 32 | 1016.0 |
| 20260506230058 | 61 | 145 | 0.9 | 8.7 | 0.00 | 0.00 | 0.00 | 32 | 1016.0 |
| 20260506224552 | 61 | 69 | 3.5 | 7.8 | 0.00 | 0.00 | 0.00 | 33 | 1016.2 |
| 20260506223055 | 62 | 284 | 0.9 | 6.1 | 0.00 | 0.00 | 0.00 | 31 | 1016.4 |
| 20260506221548 | 62 | 77 | 2.6 | 11.3 | 0.00 | 0.00 | 0.00 | 32 | 1016.7 |
| 20260506220045 | 63 | 327 | 0.9 | 4.3 | 0.00 | 0.00 | 0.00 | 32 | 1016.8 |
| 20260506214545 | 62 | 74 | 1.7 | 4.3 | 0.00 | 0.00 | 0.00 | 35 | 1017.1 |
| 20260506213102 | 60 | 78 | 2.6 | 8.7 | 0.00 | 0.01 | 0.00 | 36 | 1017.5 |
| 20260506211554 | 61 | 35 | 0.0 | 7.0 | 0.00 | 0.01 | 0.00 | 36 | 1017.6 |
| 20260506210040 | 60 | 27 | 0.9 | 7.0 | 0.00 | 0.01 | 0.00 | 37 | 1017.7 |
| 20260506204547 | 59 | 67 | 1.7 | 13.9 | 0.00 | 0.01 | 0.00 | 39 | 1018.0 |
| 20260506203045 | 60 | 49 | 2.6 | 6.1 | 0.00 | 0.05 | 0.00 | 37 | 1017.9 |
| 20260506201554 | 60 | 57 | 3.5 | 7.8 | 0.00 | 0.05 | 0.00 | 38 | 1018.2 |
| 20260506200039 | 59 | 323 | 0.9 | 7.8 | 0.00 | 0.05 | 0.00 | 39 | 1018.4 |
| 20260506194543 | 61 | 86 | 0.9 | 5.2 | 0.00 | 0.05 | 0.00 | 37 | 1018.6 |
| 20260506193038 | 59 | 126 | 0.9 | 6.1 | 0.00 | 0.13 | 0.00 | 38 | 1018.9 |
| 20260506191540 | 56 | 323 | 0.0 | 4.3 | 0.00 | 0.13 | 0.00 | 42 | 1019.1 |
| 20260506190032 | 55 | 340 | 0.0 | 7.0 | 0.00 | 0.13 | 0.00 | 43 | 1019.2 |
| 20260506184533 | 56 | 262 | 0.0 | 4.3 | 0.00 | 0.13 | 0.00 | 40 | 1019.4 |
| 20260506183041 | 56 | 24 | 0.9 | 6.1 | 0.00 | 0.15 | 0.00 | 42 | 1019.4 |
| 20260506181530 | 56 | 71 | 2.6 | 9.6 | 0.00 | 0.15 | 0.00 | 41 | 1019.5 |
| 20260506180035 | 55 | 80 | 2.6 | 13.0 | 0.00 | 0.15 | 0.00 | 41 | 1019.6 |
| 20260506174527 | 54 | 103 | 0.0 | 7.8 | 0.00 | 0.15 | 0.00 | 45 | 1019.7 |
| 20260506173027 | 52 | 15 | 2.6 | 6.1 | 0.00 | 0.15 | 0.00 | 46 | 1019.7 |
| 20260506171530 | 54 | 38 | 2.6 | 8.7 | 0.00 | 0.15 | 0.00 | 44 | 1019.8 |
| 20260506170025 | 54 | 181 | 2.6 | 6.1 | 0.00 | 0.15 | 0.00 | 44 | 1019.7 |
| 20260506164525 | 53 | 57 | 0.9 | 6.1 | 0.00 | 0.15 | 0.00 | 47 | 1019.7 |
| 20260506163024 | 52 | 86 | 0.9 | 7.0 | 0.00 | 0.15 | 0.00 | 48 | 1019.7 |
| 20260506161524 | 52 | 61 | 1.7 | 4.3 | 0.00 | 0.15 | 0.00 | 49 | 1019.6 |
| 20260506160022 | 53 | 165 | 0.0 | 4.3 | 0.00 | 0.15 | 0.00 | 48 | 1019.4 |
| 20260506154523 | 53 | 131 | 1.7 | 7.8 | 0.00 | 0.15 | 0.00 | 47 | 1019.3 |
| 20260506153021 | 52 | 77 | 1.7 | 5.2 | 0.00 | 0.15 | 0.00 | 50 | 1019.3 |
| 20260506151519 | 51 | 20 | 0.0 | 1.7 | 0.00 | 0.15 | 0.00 | 56 | 1019.3 |
| 20260506150015 | 50 | 91 | 0.0 | 0.9 | 0.00 | 0.15 | 0.00 | 56 | 1019.4 |
| 20260506144509 | 48 | 43 | 0.0 | 0.0 | 0.00 | 0.15 | 0.00 | 60 | 1019.1 |
| 20260506143012 | 43 | 284 | 0.0 | 0.0 | 0.00 | 0.15 | 0.00 | 73 | 1019.0 |
| 20260506141501 | 39 | 282 | 0.0 | 0.0 | 0.00 | 0.15 | 0.00 | 82 | 1018.7 |
| 20260506140059 | 0 | 0.0 | 0.0 | 0.00 | 0.15 | 0.00 | 1018.5 | ||
| 20260506134556 | 0 | 0.0 | 0.0 | 0.00 | 0.15 | 0.00 | 1018.3 | ||
| 20260506133052 | 0 | 0.0 | 0.0 | 0.00 | 0.15 | 0.00 | 1018.3 | ||
| 20260506131548 | 0 | 0.0 | 0.0 | 0.00 | 0.15 | 0.00 | 1018.2 | ||
| 20260506130043 | 0 | 0.0 | 0.0 | 0.00 | 0.15 | 0.00 | 1018.4 | ||
| 20260506124540 | 32 | 280 | 0.0 | 0.0 | 0.00 | 0.15 | 0.00 | 89 | 1018.6 |
| 20260506123036 | 32 | 280 | 0.0 | 0.0 | 0.00 | 0.15 | 0.00 | 88 | 1018.3 |
| 20260506121534 | 33 | 274 | 0.0 | 0.0 | 0.00 | 0.15 | 0.00 | 89 | 1018.2 |
| 20260506120041 | 33 | 282 | 0.0 | 0.0 | 0.00 | 0.15 | 0.00 | 89 | 1018.2 |
| 20260506114534 | 33 | 283 | 0.0 | 0.0 | 0.00 | 0.15 | 0.00 | 88 | 1018.1 |
| 20260506113034 | 33 | 283 | 0.0 | 0.0 | 0.00 | 0.15 | 0.00 | 88 | 1018.1 |
| 20260506111531 | 34 | 280 | 0.0 | 0.0 | 0.00 | 0.15 | 0.00 | 88 | 1017.9 |
| 20260506110032 | 33 | 281 | 0.0 | 0.0 | 0.00 | 0.15 | 0.00 | 88 | 1017.8 |